Christchurch, New Zealand

1:17 PM NZDT on November 22, 2017 (GMT +1300)
Christchurch International

Weather History for NZCH - September, 2013

Change the Weather History Date:

Monday, September 9, 2013

  Actual Average Record
Temperature  
Mean Temperature 47 °F -  
Max Temperature 55 °F 57 °F 66 °F (2000)
Min Temperature 39 °F 38 °F 30 °F (2004)
Degree Days  
Heating Degree Days 18    
Moisture  
Dew Point 37 °F    
Average Humidity 67    
Maximum Humidity 93    
Minimum Humidity 47    
Precipitation  
Precipitation 0.00 in - - ()
Sea Level Pressure  
Sea Level Pressure 29.65 in    
Wind  
Wind Speed 9 mph ()    
Max Wind Speed 20 mph    
Max Gust Speed 30 mph    
Visibility 6.2 miles    
Events      
Averages and records for this station are not official NWS values.
T = Trace of Precipitation, MM = Missing Value Source: Averaged Metar Reports

Daily Weather History Graph

Daily Weather History Graph

Search for Another Location

Airport or City:

Trip Planner

Search our weather history database for the weather conditions in past years. The results will help you decide how hot, cold, wet, or windy it might be!

Date:

Astronomy

Sep. 09, 2013 Rise Set
Actual Time 6:43 AM NZST 6:11 PM NZST
Civil Twilight 6:14 AM NZST 6:40 PM NZST
Nautical Twilight 5:41 AM NZST 7:13 PM NZST
Astronomical Twilight 5:08 AM NZST 7:46 PM NZST
Moon 8:12 AM NZST (9/9) 10:16 PM NZST (9/9)
Length of Visible Light 12h 25m
Length of Day
11h 28m
Waxing Crescent, 13% of the Moon is Illuminated
Sep 9
Waxing Crescent
Sep 13
First Quarter
Sep 19
Full
Sep 27
Last Quarter
Oct 5
New

Hourly Weather History & Observations

Time (NZST) Temp. Windchill Dew Point Humidity Pressure Visibility Wind Dir Wind Speed Gust Speed Precip Events Conditions
12:00 AM 51.8 °F - 32.0 °F 47% 29.56 in 6.2 mi NW 18.4 mph 29.9 mph N/A   Unknown
12:30 AM 50.0 °F - 32.0 °F 50% 29.53 in 6.2 mi NNW 15.0 mph - N/A   Unknown
1:00 AM 50.0 °F - 32.0 °F 50% 29.53 in 6.2 mi NNW 16.1 mph - N/A   Unknown
1:30 AM 50.0 °F - 32.0 °F 50% 29.53 in 6.2 mi NNW 12.7 mph - N/A   Unknown
2:00 AM 46.4 °F 41.9 °F 32.0 °F 57% 29.53 in 6.2 mi NNW 9.2 mph - N/A   Unknown
2:30 AM 46.4 °F 41.9 °F 32.0 °F 57% 29.53 in 6.2 mi NNW 9.2 mph - N/A   Unknown
3:00 AM 46.4 °F 43.5 °F 32.0 °F 57% 29.53 in 6.2 mi NNW 5.8 mph - N/A   Unknown
3:30 AM 46.4 °F 43.5 °F 32.0 °F 57% 29.53 in 6.2 mi NW 5.8 mph - N/A   Unknown
4:00 AM 48.2 °F - 32.0 °F 54% 29.53 in 6.2 mi WNW 5.8 mph - N/A   Scattered Clouds
4:30 AM 51.8 °F - 32.0 °F 47% 29.53 in 6.2 mi West 10.4 mph - N/A   Overcast
5:00 AM 50.0 °F - 33.8 °F 54% 29.53 in 6.2 mi West 4.6 mph - N/A   Overcast
5:30 AM 46.4 °F - 33.8 °F 62% 29.56 in 6.2 mi WNW 2.3 mph - N/A   Mostly Cloudy
6:00 AM 46.4 °F 45.2 °F 32.0 °F 57% 29.56 in 6.2 mi West 3.5 mph - N/A   Unknown
6:30 AM 41.0 °F - 32.0 °F 70% 29.59 in 6.2 mi South 2.3 mph - N/A   Unknown
7:00 AM 41.0 °F 39.0 °F 32.0 °F 70% 29.59 in 6.2 mi South 3.5 mph - N/A   Unknown
7:30 AM 42.8 °F 41.1 °F 33.8 °F 70% 29.62 in 6.2 mi West 3.5 mph - N/A   Partly Cloudy
8:00 AM 48.2 °F - 35.6 °F 62% 29.62 in 6.2 mi West 5.8 mph - N/A   Unknown
8:30 AM 50.0 °F - 37.4 °F 62% 29.65 in 6.2 mi South 13.8 mph - N/A   Unknown
9:00 AM 50.0 °F - 42.8 °F 76% 29.68 in 6.2 mi South 11.5 mph - N/A   Mostly Cloudy
9:30 AM 51.8 °F - 41.0 °F 67% 29.68 in 6.2 mi SSW 12.7 mph - N/A   Scattered Clouds
10:00 AM 51.8 °F - 41.0 °F 67% 29.71 in 6.2 mi South 13.8 mph - N/A   Unknown
10:30 AM 51.8 °F - 41.0 °F 67% 29.71 in 6.2 mi South 10.4 mph - N/A   Unknown
11:00 AM 53.6 °F - 39.2 °F 58% 29.71 in 6.2 mi SSW 5.8 mph - N/A   Unknown
11:30 AM 53.6 °F - 41.0 °F 62% 29.71 in 6.2 mi WNW 5.8 mph - N/A   Unknown
12:00 PM 51.8 °F - 41.0 °F 67% 29.71 in 6.2 mi North 6.9 mph - N/A   Mostly Cloudy
12:30 PM 51.8 °F - 42.8 °F 71% 29.71 in 6.2 mi North 8.1 mph - N/A   Mostly Cloudy
1:00 PM 55.4 °F - 44.6 °F 67% 29.71 in 6.2 mi NNE 11.5 mph - N/A   Mostly Cloudy
1:30 PM 53.6 °F - 42.8 °F 67% 29.71 in 6.2 mi NE 15.0 mph - N/A   Partly Cloudy
2:00 PM 53.6 °F - 41.0 °F 62% 29.68 in 6.2 mi NE 18.4 mph - N/A   Unknown
2:30 PM 51.8 °F - 39.2 °F 62% 29.68 in 6.2 mi NE 18.4 mph - N/A   Unknown
3:00 PM 51.8 °F - 41.0 °F 67% 29.68 in 6.2 mi NE 17.3 mph - N/A   Unknown
3:30 PM 51.8 °F - 39.2 °F 62% 29.68 in 6.2 mi ENE 19.6 mph - N/A   Unknown
4:00 PM 51.8 °F - 39.2 °F 62% 29.71 in 6.2 mi ENE 19.6 mph - N/A   Unknown
4:30 PM 50.0 °F - 39.2 °F 66% 29.71 in 6.2 mi ENE 19.6 mph - N/A   Unknown
5:00 PM 50.0 °F - 39.2 °F 66% 29.68 in 6.2 mi ENE 17.3 mph - N/A   Unknown
5:30 PM 50.0 °F - 41.0 °F 71% 29.68 in 6.2 mi East 13.8 mph - N/A   Unknown
6:00 PM 48.2 °F - 41.0 °F 76% 29.71 in 6.2 mi East 6.9 mph - N/A   Unknown
6:30 PM 48.2 °F - 41.0 °F 76% 29.68 in 6.2 mi ESE 10.4 mph - N/A   Unknown
7:00 PM 46.4 °F 42.9 °F 41.0 °F 81% 29.68 in 6.2 mi East 6.9 mph - N/A   Unknown
7:30 PM 44.6 °F - 39.2 °F 81% 29.68 in 6.2 mi NNE 2.3 mph - N/A   Unknown
8:00 PM 44.6 °F 42.2 °F 41.0 °F 87% 29.68 in 6.2 mi NNE 4.6 mph - N/A   Unknown
8:30 PM 41.0 °F 39.0 °F 37.4 °F 87% 29.71 in 6.2 mi ENE 3.5 mph - N/A   Unknown
9:00 PM 41.0 °F - 37.4 °F 87% 29.71 in 6.2 mi NE 2.3 mph - N/A   Unknown
9:30 PM 39.2 °F 35.9 °F 37.4 °F 93% 29.71 in 6.2 mi North 4.6 mph - N/A   Unknown
10:00 PM 41.0 °F 39.0 °F 37.4 °F 87% 29.71 in 6.2 mi North 3.5 mph - N/A   Unknown
10:30 PM 39.2 °F 37.0 °F 33.8 °F 81% 29.71 in 6.2 mi East 3.5 mph - N/A   Unknown
11:00 PM 39.2 °F 37.0 °F 33.8 °F 81% 29.71 in 6.2 mi NNE 3.5 mph - N/A   Unknown
11:30 PM 39.2 °F 35.9 °F 32.0 °F 75% 29.71 in 6.2 mi NE 4.6 mph - N/A   Unknown